Location: Newark
(3.0500°N, 36.0167°E)
Time: 12:11:58
(UTC+00:00)

ISS - Visible Passes

Search period start: 20 August 2019 00:00
Search period end: 30 August 2019 00:00
Orbit: 410 x 420 km, 51.6° (Epoch: 20 August)

Date Brightness Start Highest point End Pass type
(mag) Time Alt. Az. Time Alt. Az. Time Alt. Az.
20 Aug -1.2 02:00:31 14° SSE 02:01:37 16° SE 02:03:44 10° E visible
21 Aug -3.1 02:47:36 20° WSW 02:49:24 35° NW 02:52:28 10° NNE visible
22 Aug -2.7 02:01:39 43° NE 02:01:39 43° NE 02:03:59 10° NE visible
